{"data":{"norad_id":57876,"intl_designator":"2023-144N","name":"STARLINK-30429","alt_names":[],"object_type":"PAYLOAD","status":"ACTIVE","operator":null,"country":"US","launch_date":"2023-09-16","launch_site_code":"AFETR","launch_vehicle":null,"mission":null,"orbit_class":"UNKNOWN","rcs_meters":null,"size_class":null,"mass_kg":null,"dimensions":null,"purposes":["comms"],"wikipedia_slug":null,"has_3d_model":false,"image_url":null,"decayed_at":null,"tle_current":{"epoch":"2026-09-19T00:49:49.700064Z","epoch_age_seconds":261231,"freshness":"STALE","line1":"1 57876U 23144N   26262.03460301  .00000586  00000+0  30839-4 0  9997","line2":"2 57876  43.0037 273.5856 0001412 268.3652  91.7038 15.27578005167202","mean_motion":15.27578005,"eccentricity":0.0001412,"inclination_deg":43.0037,"raan_deg":273.5856,"arg_perigee_deg":268.3652,"mean_anomaly_deg":91.7038,"bstar":3.0839e-5,"rev_number":16720,"period_min":94.266871824984,"perigee_km":482.0862694736,"apogee_km":484.02387011411,"semimajor_km":6861.1920697939,"source":"CELESTRAK","updated_at":"2026-09-21T09:00:33.718350Z"}}}